Regional Weather Roundup
Issued by NWS

Home | Current Version | Previous Version | Graphics & Text | Print | Product List | Glossary On
Versions: 1 2 3 4 5 6 7 8 9 10 11 12 13 14 15 16 17 18 19 20 21 22 23 24 25 26 27 28 29 30 31 32 33 34 35 36 37 38 39 40 41 42 43 44 45 46 47 48 49 50
000
ASUS43 KMKX 251111
RWRWI

WISCONSIN REGIONAL WEATHER ROUNDUP
NATIONAL WEATHER SERVICE MILWAUKEE/SULLIVAN WI
600 AM CDT MON JUL 25 2016

NOTE: "FAIR" INDICATES FEW OR NO CLOUDS BELOW 12,000 FEET WITH NO
SIGNIFICANT WEATHER AND/OR OBSTRUCTIONS TO VISIBILITY.

WIZ001-002-006>008-014>016-023>028-251200-
NORTHWEST WISCONSIN

CITY           SKY/WX    TMP DP  RH WIND       PRES   REMARKS
SUPERIOR ARPT  CLEAR     62  60  92 W5        29.97R
ASHLAND        CLEAR     61  58  90 SW6       29.96R
HAYWARD        CLEAR     59  57  93 SW3       29.99R
SIREN          CLEAR     63  61  94 CALM      30.00R
CUMBERLAND     CLEAR     59  57  94 W3        30.01R
RICE LAKE      CLEAR     60  58  92 CALM      30.02R
CHETEK         CLEAR     61  61  99 W3        30.00R
LADYSMITH      CLEAR     61  60  94 CALM      30.01R
EAU CLAIRE     CLEAR     64  61  90 S5        29.99R
MENOMONIE      CLEAR     64  61  88 W5        30.00S
NEW RICHMOND   CLEAR     62  59  92 W3        30.02R
OSCEOLA        CLEAR     60  60 100 CALM      30.04S
$$

WIZ003>005-009-010-017-018-251200-
NORTH CENTRAL WISCONSIN

CITY           SKY/WX    TMP DP  RH WIND       PRES   REMARKS
MANITOWISH WTR PTCLDY    60  60 100 W7        29.97R
ARBOR VITAE    CLEAR     62  60  93 W5        29.97R
WOODRUFF       CLEAR     62  60  93 W5        29.97R
RHINELANDER    CLEAR     62  59  90 W7        29.98R
EAGLE RIVER    CLEAR     63  61  93 W3        29.95S
LAND O LAKES   CLEAR     60  59  96 W5        29.96R
PHILLIPS       CLEAR     59  59 100 CALM      29.98S
TOMAHAWK       CLEAR     58  57  95 CALM      29.98S
MEDFORD        CLEAR     60  60 100 W6        29.99R
MERRILL        CLEAR     60  60 100 W5        29.98R
$$

WIZ029-030-035-036-043>047-251200-
CENTRAL WISCONSIN

CITY           SKY/WX    TMP DP  RH WIND       PRES   REMARKS
WAUSAU         CLEAR     64  61  90 NW3       29.96R
MOSINEE        CLEAR     63  63 100 NW9       29.99R
MARSHFIELD     CLEAR     63  59  87 W6        29.99R
STEVENS POINT  CLEAR     63  61  93 W3        29.98S
WAUPACA        CLEAR     67  65  93 W5        29.96S
WAUTOMA        CLEAR     64  63  96 W5        29.98S
WISC RAPIDS    CLEAR     64  60  87 W5        30.00R
CAMP DOUGLAS   CLEAR     61  60  97 W7        30.00R
$$

WIZ011>013-019>022-031-037>040-048>050-251200-
NORTHEAST WISCONSIN

CITY           SKY/WX    TMP DP  RH WIND       PRES   REMARKS
ANTIGO         CLEAR     60  60  98 W7        29.97R
SHAWANO        CLEAR     67  62  85 W5        29.94S
OCONTO         CLEAR     64  64 100 W6        29.91R
STURGEON BAY   CLEAR     68  63  84 W5        29.92R
GREEN BAY      CLEAR     65  65 100 W7        29.93R
MANITOWOC      CLEAR     68  62  81 W5        29.94R
APPLETON       PTCLDY    64  64 100 W9        29.94S
CLINTONVILLE   CLEAR     64  61  88 W7        29.94S
OSHKOSH        CLEAR     67  62  84 W6        29.95R
$$

WIZ032>034-041-042-053>061-251200-
SOUTHWEST WISCONSIN

CITY           SKY/WX    TMP DP  RH WIND       PRES   REMARKS
LA CROSSE      CLEAR     68  64  87 CALM      30.01R
SPARTA         CLEAR     58  57  99 CALM      30.02R
VIROQUA        CLEAR     63  63 100 W6        30.03S
BOSCOBEL       CLEAR     65  64  97 S3        30.02R
PRAIRIE DU CHI CLEAR     65  64  94 CALM      30.03R
PLATTEVILLE    CLEAR     65  65 100 CALM      30.03R
$$

WIZ056-057-062-063-064-067-068-251200-
SOUTH CENTRAL WISCONSIN

CITY           SKY/WX    TMP DP  RH WIND       PRES   REMARKS
REEDSBURG      CLEAR     63  63 100 CALM      30.00R
BARABOO/DELLS  CLEAR     64  62  93 W5        30.00S
LONE ROCK      CLEAR     67  65  93 CALM      30.01S
MINERAL POINT  CLEAR     68  64  88 W3        30.03R
MADISON        PTCLDY    68  64  87 W3        29.99R
MIDDLETON      CLEAR     67  66  98 W6        30.01R
WATERTOWN      CLEAR     65  65 100 CALM      29.99R
MONROE         CLEAR     68  64  88 W6        30.01R
JANESVILLE     CLEAR     68  66  94 W3        29.99S
$$

WIZ051-052-058>065-066-070>072-251200-
SOUTHEAST WISCONSIN

CITY           SKY/WX    TMP DP  RH WIND       PRES   REMARKS
MILWAUKEE      PTCLDY    75  65  70 W9        29.96R
WAUKESHA       CLEAR     66  63  88 SW6       29.99R
MILWAUKEE/TIMM CLEAR     68  61  77 W6        29.98R
RACINE         PTCLDY    72  65  78 W6        29.98R
BURLINGTON     CLEAR     68  65  91 NW5       29.98R
KENOSHA        PTCLDY    68  66  93 W5        29.98R
FOND DU LAC    CLEAR     68  63  84 W7        29.96R
SHEBOYGAN      CLEAR     67  63  87 W7        29.95R
WEST BEND      CLEAR     68  63  83 W3        29.97R
JUNEAU         CLEAR     66  64  91 W3        29.99R
$$

LSZ147-162-251200-
LAKE SUPERIOR

STATION/POSITION TIME  TEMP    WIND        PRES    WAVE
                       AIR SEA DIR/SP/G            HT/PER
                 (UTC) (F)     (DEG/KT/KT) (MB)    (FT/S)
W MID LAKE BUOY  1050   63 58  270/ 14/ 16 1011.3R   2/ 4
DEVILS ISLAND    1100   64     260/ 14/ 16 1013.6R
SAXON HARBOR     1000   66     200/  6/  8 1013.2S
$$

LMZ867-665-643>646-251200-
LAKE MICHIGAN

STATION/POSITION TIME  TEMP    WIND        PRES    WAVE
                       AIR SEA DIR/SP/G            HT/PER
                 (UTC) (F)     (DEG/KT/KT) (MB)    (FT/S)
CHAMBERS ISLAND  1000   68     210/  4/  6 1011.9S
S GREEN BAY BUOY 1030   70 74  250/ 12/ 14   N/A
N MID LAKE BUOY  1050   70 68  250/ 10/ 12 1010.7R   2/ 6
NORTHPORT PIER   1000   70     280/  4/  6 1011.5S
KEWAUNEE LAKESHO 1000   69     290/  4/  5 1012.4S
SHEBOYGAN LAKESH 1100   71     280/ 10/ 11 1013.6R
PORT WASHINGTON  1000   72     290/  2/  5 1014.2
MILWAUKEE LAKESH 1010   74     290/  7/  8   N/A
S MID LAKE BUOY  1050   74 72  280/  8/ 10 1013.1R   2/ 5
KENOSHA   LAKESH 1100   73     300/ 10/ 12 1014.2R
$$

TC  - TEMPERATURE IN CELSIUS
VSB - VISIBILITY IN STATUTE MILES
WCI - WIND CHILL INDEX
HX  - HEAT INDEX




USA.gov is the U.S. government's official web portal to all federal, state and local government web resources and services.